Racecast

Cora Conley

Saratoga Springs (NY) · 10 · NY DA2 DAALBANY · Compare head to head

Athlete rating 126.2 2026 TF season
Best race 154.6 XC
Races 78
Seasons 5 2022 — 2026

RankedNation #7137·NY #279·NY DA #124·2 #45·2 DA #116·Team #8 ?

Rating scale ?

Cross Country

2025 XC 124.5

Saratoga Springs (NY) · Grade 10

Date Meet Event Result Place Rating Difficulty PR/SR Flags
2025-11-22 Bowdoin Park 5000m 20:20.9 85th · 3rd on team 127.8 +0.018 CSR
2025-11-08 Queensbury HS 5000m 19:12.9 15th · 3rd on team 128.0 -0.046 ★CR CSR RSR
2025-10-25 Saratoga Springs HS 4828m 18:50.5 21st · 3rd on team 121.8 -0.073 ★CR SR CSR
2025-10-04 Saratoga Springs HS 5000m 19:09.9 15th · 4th on team 124.6 -0.071 ★PR ★CR SR CSR RSR
2025-09-27 McQuaid Jesuit High School 4828m 19:03.1 54th · 3rd on team 120.3 -0.074 ★CR SR CSR RSR

2024 XC 129.7

Saratoga Springs (NY) · Grade 9

Date Meet Event Result Place Rating Difficulty PR/SR Flags
2024-11-23 Bowdoin Park 5000m 20:17.2 76th · 4th on team 130.9 +0.018 CSR
2024-11-08 Queensbury HS 4828m 18:41 10th · 3rd on team 131.0 -0.024 ★CR CSR RSR
2024-10-26 Saratoga State Park 4828m 18:35.1 9th · 2nd on team 128.0 -0.037 ★PR ★CR SR CSR
2024-10-12 Saratoga State Park 4828m 18:38.7 10th · 2nd on team 129.3 -0.037 PR CR SR CSR RSR
2024-09-07 Fonda-Fultonville HS 5000m 19:36.7 2nd · 2nd on team 129.2 -0.011 PR ★CR SR CSR RSR

2023 XC 150.3

Saratoga Springs (NY) · Grade 8

Date Meet Event Result Place Rating Difficulty PR/SR Flags
2023-12-02 Glendoveer Golf Course 5000m 19:59.2 152nd · 7th on team 154.6 +0.031 ★CR ★R CSR RSR
2023-11-18 Bowdoin Park 5000m 19:47.4 30th · 5th on team 153.8 +0.018 ★CR R CSR RSR
2023-11-11 VVS High School 5000m 19:49.5 39th · 6th on team 147.4 -0.019 ★CR R CSR RSR
2023-09-23 Goddard Memorial State Park 5000m 19:46.2 2nd · 2nd on team 145.4 -0.035 PR ★CR R SR CSR RSR

2022 XC 112.0

Saratoga Springs (NY) · Grade 7

Date Meet Event Result Place Rating Difficulty PR/SR Flags
2022-10-15 Saratoga State Park 3000m 13:07.7 9th · 2nd on team 103.6 +0.007 ★CR CSR
2022-09-17 Queensbury HS 3000m 12:06.1 25th · 4th on team 110.7 -0.070 ★PR ★CR SR CSR
2022-09-10 Vernon Verona-Sherrill HS 5000m 25:10.6 49th · 14th on team 121.8 +0.003 PR ★CR R SR CSR RSR

Track & Field

2026 TF 122.3

Saratoga Springs (NY) · Grade 10

Date Meet Event Result Place Rating Difficulty PR/SR Flags
2026-05-27 Section 2 Group 1 Championships 1500m 5:09.59 12th · 1st on team 122.1 -0.035
2026-05-20 Girls Suburban Council Varsity and JV Championships 1500m 5:02.09 12th · 3rd on team 124.5 -0.040
2026-05-07 Glenn D. Loucks Games 1mile 5:25.33 48th · 4th on team 121.9 -0.065 SR
2026-04-29 Saratoga vs Colonie vs CBA 800m 2:34.91 7th · 6th on team 117.5 -0.038 SR
2026-04-29 Saratoga vs Colonie vs CBA 1500m 4:57.98 1st · 1st on team 126.5 -0.038 SR
2026-04-25 Luciano Memorial Invitational 1500m 5:05.59 13th · 3rd on team 122.8 -0.042
2026-04-17 2026 New York Relays 3000m 11:10.13 32nd · 6th on team 120.3 -0.050 SR
2026-02-25 CBA Showcase Individual Running Events 1500m 5:06.41 12th · 1st on team 124.2 -0.029
2026-02-20 Garden State TC Invitational 1600m 5:25.33 12th · 3rd on team 123.5 -0.050 SR
2026-02-14 Section 2 State Qualifier 1500m 5:05.78 9th · 2nd on team 126.1 -0.016
2026-02-10 CBA Invite #3 1500m 5:02.25 3rd · 1st on team 126.5 -0.024 SR RSR
2026-02-01 Section 2 Division I Championship 1500m 5:12.63 10th · 2nd on team 123.3 -0.016
2026-01-24 Puma New York International Showcase 2026 1mile 5:41.08 20th · 4th on team 118.2 -0.053
2026-01-09 Refuel with Chocolate Milk Officials HOF Invitational - HS 1mile 5:35.72 18th · 2nd on team 120.5 -0.050 SR
2026-01-09 Refuel with Chocolate Milk Officials HOF Invitational - HS 1500m 5:11.01 18th · 2nd on team 120.0 -0.050
2026-01-03 TCITL LM 5B 1500m 5:25.01 4th · 2nd on team 118.6 -0.037
2025-12-20 The Beantown Winter Classic 1mile 5:36.73 30th · 2nd on team 120.2 -0.048 SR
2025-12-14 TCITL LM 2D 1500m 5:07.9 4th · 3rd on team 125.0 -0.037 SR RSR

2025 TF 124.7

Saratoga Springs (NY) · Grade 9

Date Meet Event Result Place Rating Difficulty PR/SR Flags
2025-05-28 Section 2 Group 1 Championships 1500m 5:01.03 11th · 2nd on team 125.4 -0.035
2025-05-20 Girls Suburban Council Varsity and JV Championship 1500m 4:58.75 10th · 1st on team 125.9 -0.040
2025-05-17 William F. Eddy Jr. Track & Field Meet 1500m 5:05.3 21st · 2nd on team 122.7 -0.043
2025-05-17 William F. Eddy Jr. Track & Field Meet 2025 1500m 5:05.3 21st · 2nd on team 122.2 -0.046
2025-05-13 Albany vs Shaker vs Saratoga vs Columbia Girls 3000m 10:59.07 2nd · 2nd on team 124.4 -0.036
2025-05-10 Queensbury Invitational 1500m 5:00.38 6th · 2nd on team 124.5 -0.046
2025-05-07 Saratoga vs Schenectady-Coed 800m 2:31.54 2nd · 2nd on team 120.4 -0.038 ★PR SR
2025-05-07 Saratoga vs Schenectady-Coed 1500m 4:57.68 3rd · 3rd on team 126.4 -0.038
2025-04-26 Luciano Memorial Invitational 3000m 10:51.63 6th · 3rd on team 124.6 -0.042
2025-04-09 Saratoga vs Burnt Hills Meet 3000m 10:43.11 3rd · 3rd on team 126.9 -0.038 SR
2025-03-16 Nike Indoor Nationals 1500m 4:56.54 12th · 1st on team 125.7 -0.050 ★PR SR
2025-03-16 Nike Indoor Nationals 1mile 5:19.47 17th · 2nd on team 126.5 -0.050 ★PR SR
2025-02-22 Section 2 State Qualifier 1500m 4:58.25 4th · 1st on team 129.1 -0.016 PR SR RSR
2025-02-17 Section 2 Division I Championship 1000m 3:16.77 8th · 1st on team 122.9 -0.016
2025-02-17 Section 2 Division I Championship 1500m 5:06.66 7th · 2nd on team 125.6 -0.016
2025-02-01 Ocean Breeze Invitational 1mile 5:24.72 2nd · 1st on team 124.0 -0.053 PR SR
2025-01-10 Utica Challenge 1500m 4:59.78 1st · 1st on team 126.0 -0.046 PR SR RSR
2024-12-21 TCITL 2C 1500m 5:09.2 1st · 1st on team 123.1 -0.030 SR RSR
2024-12-21 TCITL 2C 1000m 3:15.5 1st · 1st on team 122.3 -0.030 ★PR SR

2024 TF 133.7

Kinetic Running (NY) · Grade 8

Date Meet Event Result Place Rating Difficulty PR/SR Flags
2024-06-16 New Balance Nationals Outdoor 3000m 11:06.73 29th · 3rd on team 131.0 -0.049
2024-06-16 New Balance Nationals Outdoor 2miles 11:57.24 33rd · 3rd on team 131.6 -0.049 SR
2024-05-08 Bethlehem vs Saratoga vs Shaker Girls 800m 2:35.1 5th · 5th on team 129.7 -0.025 PR SR
2024-05-01 Saratoga vs Shen Girls 1500m 5:09.83 3rd · 3rd on team 131.4 -0.039
2024-02-24 Ocean Breeze Elite Invitational 3000m 10:40.58 5th · 2nd on team 138.4 -0.053 ★PR SR RSR
2024-02-18 Section 2 State Qualifier Shot Put and Weight Throw 1500m 5:03.02 9th · 2nd on team 137.6 -0.016
2024-02-10 Section 2 State Qualifier 1500m 5:03.02 9th · 2nd on team 137.7 -0.016 PR SR
2024-01-21 Suburban Council Freshman Championships 1500m 5:07.23 2nd · 1st on team 135.8 -0.016 PR SR
2024-01-21 Suburban Council Freshman Championships 1000m 3:21.9 5th · 1st on team 130.2 -0.016
2024-01-13 Utica Invitational 3000m 10:56.72 1st · 1st on team 134.5 -0.046 PR SR
2024-01-07 Freedom Games 1000m 3:18.56 1st · 1st on team 127.6 -0.053 PR SR
2024-01-07 Freedom Games 1600m 5:25.07 22nd · 4th on team 133.2 -0.053 ★PR SR
2023-12-16 TCITL League Meet 2c 1500m 5:07.86 5th · 5th on team 135.7 -0.037 PR SR
2023-12-10 TCITL LM 2B 3000m 10:57.03 5th · 4th on team 137.8 -0.016 PR SR RSR

2023 TF 128.9

Kinetic Running (NY) · Grade 7

Date Meet Event Result Place Rating Difficulty PR/SR Flags
2023-06-18 New Balance Nationals Outdoor 1mile 5:34.44 31st · 3rd on team 130.4 -0.049 PR SR
2023-06-18 New Balance Nationals Outdoor 1500m 5:10.97 28th · 2nd on team 129.5 -0.049 PR SR
2023-06-18 New Balance Nationals Outdoor 2miles 11:57.18 17th · 2nd on team 131.1 -0.049 ★PR SR
2023-06-18 New Balance Nationals Outdoor 3000m 11:07.01 15th · 2nd on team 130.6 -0.049
2023-05-20 80th Annual Eddy Meet 3000m 11:05.83 7th · 4th on team 131.8 -0.046 PR SR
2023-04-18 Guilderland Girls Triangular Meet 3000m 11:09.76 1st · 1st on team 134.0 -0.024 PR R SR RSR
2023-03-12 2023 Nike Indoor Nationals 1mile 5:46.39 36th · 5th on team 126.6 -0.050 PR R SR RSR
2023-03-12 2023 Nike Indoor Nationals 1500m 5:22.78 33rd · 5th on team 125.3 -0.050 PR SR
2023-01-21 Suburban Council Girls Varsity and Freshmen Championships 3000m 11:51.41 3rd · 3rd on team 126.3 -0.037 PR R SR RSR
2022-12-27 MSTCA Boston Holiday Challenge 1mile 5:56.09 17th · 4th on team 123.7 -0.049 PR R SR RSR